Regional Weather Roundup
Issued by NWS Newport/Morehead, NC

Current Version | Previous Version | Graphics & Text | Print | Product List | Glossary On
Versions: 1 2 3 4 5 6 7 8 9 10 11 12 13 14 15 16 17 18 19 20 21 22 23 24 25 26 27 28 29 30 31 32 33 34 35 36 37 38 39 40 41 42 43 44 45 46 47 48 49 50
000 ASUS42 KMHX 261325 RWRMHX WEATHER ROUNDUP FOR EASTERN NORTH CAROLINA NATIONAL WEATHER SERVICE NEWPORT/MOREHEAD CITY NC 900 AM EDT WED APR 26 2017 NOTE: "FAIR" INDICATES FEW OR NO CLOUDS BELOW 12,000 FEET WITH NO SIGNIFICANT WEATHER AND/OR OBSTRUCTIONS TO VISIBILITY NCZ015>017-031-032-045>047-102-103-261400- NORTH COAST CITY SKY/WX TMP DP RH WIND PRES REMARKS EDENTON NOT AVBL ELIZABETH CITY CLOUDY 62 61 96 W12 29.79R KITTY HAWK CLOUDY 64 63 98 CALM 29.77R MANTEO CLOUDY 63 61 94 NW7 29.79R $$ NCZ045>047-081-094-103-104-261400- CENTRAL COAST CITY SKY/WX TMP DP RH WIND PRES REMARKS FRISCO CLOUDY 66 61 84 W8G17 29.80R $$ NCZ095-097-098-100-101-261400- SOUTHERN COAST CITY SKY/WX TMP DP RH WIND PRES REMARKS BEAUFORT CLOUDY 64 62 93 W9 29.82R CEDAR ISLAND NOT AVBL JACKSONVILLE CLOUDY 64 61 90 W10 29.82R PINEY ISLAND CLOUDY N/A N/A N/A W13 29.81R WILMINGTON CLOUDY 65 59 81 W5 29.83R $$ NCZ011>013-027>030-043-044-078>080-089-090>093-098-261400- COASTAL PLAIN CITY SKY/WX TMP DP RH WIND PRES REMARKS AHOSKIE N/A 61 57 87 CALM 29.81S CLINTON MOSUNNY 64 59 84 CALM 29.83R ELIZABETHTOWN PTSUNNY 64 59 84 CALM 29.84R GOLDSBORO MOSUNNY 63 61 94 NW6 29.81R GREENVILLE PTSUNNY 63 59 88 NW7 29.85R HAVELOCK NOT AVBL KENANSVILLE MOSUNNY 64 59 82 N3 29.83R KINSTON PTSUNNY 64 61 88 CALM 29.83R NEW BERN CLOUDY 64 62 93 W7 29.82R RICHLANDS PTSUNNY 66 59 77 VRB6 29.83R ROCKY MOUNT MOSUNNY 63 58 83 NW5 29.82R WASHINGTON CLOUDY 63 58 85 W6 29.81S WHITEVILLE CLOUDY 62 59 89 CALM 29.84R $$ AMZ130-135-150-152-154-156-158-170-250-252-270-ANZ085-086-088-633-658-670-261400- MARINE OBSERVATIONS STATION/POSITION TIME TEMP WIND PRES WAVE SWELL AIR SEA DIR/SP/G HT/PER HT/PER (UTC) (F) (DEG/KT/KT) (MB) (FT/S) (FT/S) CHESAPEAKE LIGHT NOT AVBL 64 E VA BEACH 1250 56 54 250/ 8/ 10 1008.1 7/ 9 7/ 9 DUCK 1300 62 59 280/ 10/ 14 1007.9 2 E DUCK 1300 60 N/A 4/ 9 2/11 OREGON INLET 1300 64 64 260/ 6/ 9 1008.5 13E OREGON INLT 1248 61 N/A 5/ 9 5/ 9 HATTERAS CG 1300 65 68 250/ 10/ 13 1008.8 DIAMOND BUOY 1250 69 77 280/ 14/ 17 1008.6 6/ 9 5/ 9 CAPE LOOKOUT 1300 64 310/ 7/ 8 1009.3 BEAUFORT LAB 1300 63 65 290/ 5/ 8 1008.9 30 SE NEW RVR IN 1308 65 300/ 10/ 14 1010.1 30 SE NEW RVR IN 1313 71 N/A 5/ 9 2/11 27 SE WRIGHTSVLE 1308 66 71 280/ 8/ 12 1009.6 5 SE WRIGHTSVLE 1308 65 69 280/ 6/ 10 1010.1 225 S CAPE HAT 1250 73 75 220/ 17/ 21 1011.0 8/ 9 5/ 9 41 SE CHARLESTON 1300 72 73 220/ 10/ 12 1010.1 $$

USA.gov is the U.S. government's official web portal to all federal, state and local government web resources and services.